Weather History for KGED - October, 2012

Change the Weather History Date:

Thursday, October 4, 2012

  Actual Average Record
Temperature  
Mean Temperature 75 °F 62 °F  
Max Temperature 83 °F 72 °F 91 °F (1954)
Min Temperature 66 °F 52 °F 27 °F (1974)
Degree Days  
Heating Degree Days 0 5  
Month to date heating degree days 4 17  
Since 1 July heating degree days 32 55  
Cooling Degree Days 10 1  
Month to date cooling degree days 34 7  
Year to date cooling degree days 1590 1178  
Growing Degree Days 25 (Base 50)    
Moisture  
Dew Point 68 °F    
Average Humidity 71    
Maximum Humidity 94    
Minimum Humidity 47    
Precipitation  
Precipitation 0.02 in 0.11 in 0.70 in (1987)
Month to date precipitation 0.39 0.43  
Year to date precipitation 23.76 33.83  
Sea Level Pressure  
Sea Level Pressure 30.11 in    
Wind  
Wind Speed 2 mph (WSW)    
Max Wind Speed 9 mph    
Max Gust Speed 13 mph    
Visibility 7 miles    
Events      
T = Trace of Precipitation, MM = Missing Value Source: NWS Daily Summary

Daily Weather History Graph

Daily Weather History Graph

Search for Another Location

Airport or City:

Trip Planner

Search our weather history database for the weather conditions in past years. The results will help you decide how hot, cold, wet, or windy it might be!

Date:

Astronomy

Oct. 04, 2012 Rise Set
Actual Time 7:00 AM EDT 6:38 PM EDT
Civil Twilight 6:34 AM EDT 7:05 PM EDT
Nautical Twilight 6:03 AM EDT 7:36 PM EDT
Astronomical Twilight 5:32 AM EDT 8:06 PM EDT
Moon 9:15 PM EDT 11:12 AM EDT
Length of Visible Light 12h 31m
Length of Day
11h 38m
Waning Gibbous, 82% of the Moon is Illuminated
Oct 4
Waning Gibbous
Oct 8
Last Quarter
Oct 15
New
Oct 21
First Quarter
Oct 29
Full

Hourly Weather History & Observations

Time (EDT) Temp. Heat Index Dew Point Humidity Pressure Visibility Wind Dir Wind Speed Gust Speed Precip Events Conditions
12:54 AM 73.9 °F - 72.0 °F 93% 30.13 in 5.0 mi Calm Calm - N/A   Clear
1:54 AM 73.9 °F - 72.0 °F 93% 30.13 in 4.0 mi Calm Calm - N/A   Partly Cloudy
2:54 AM 73.9 °F - 72.0 °F 93% 30.12 in 5.0 mi Calm Calm - N/A   Scattered Clouds
3:54 AM 73.9 °F - 72.0 °F 93% 30.11 in 4.0 mi Calm Calm - N/A   Mostly Cloudy
4:54 AM 73.9 °F - 71.1 °F 91% 30.12 in 4.0 mi Calm Calm - N/A   Mostly Cloudy
5:54 AM 75.0 °F - 72.0 °F 90% 30.12 in 6.0 mi Calm Calm - N/A   Mostly Cloudy
6:54 AM 73.0 °F - 71.1 °F 93% 30.13 in 4.0 mi Calm Calm - N/A   Clear
7:54 AM 75.0 °F - 72.0 °F 90% 30.13 in 4.0 mi Calm Calm - 0.00 in   Mostly Cloudy
8:54 AM 75.9 °F - 73.0 °F 91% 30.14 in 5.0 mi Calm Calm - N/A   Mostly Cloudy
9:13 AM 75.2 °F - 73.4 °F 94% 30.15 in 5.0 mi West 3.5 mph - N/A   Mostly Cloudy
9:54 AM 77.0 °F - 73.0 °F 88% 30.15 in 6.0 mi Calm Calm - N/A   Overcast
10:54 AM 79.0 °F - 73.9 °F 84% 30.14 in 6.0 mi SSW 6.9 mph - 0.02 in   Haze
11:54 AM 80.1 °F 83.8 °F 72.0 °F 76% 30.12 in 10.0 mi West 4.6 mph - N/A   Mostly Cloudy
12:54 PM 82.9 °F 85.4 °F 66.9 °F 58% 30.10 in 10.0 mi WSW 5.8 mph - N/A   Clear
1:54 PM 82.0 °F 84.1 °F 66.0 °F 58% 30.09 in 10.0 mi SW 4.6 mph - N/A   Clear
2:54 PM 82.0 °F 82.4 °F 60.1 °F 47% 30.09 in 10.0 mi WSW 8.1 mph - N/A   Mostly Cloudy
3:54 PM 79.0 °F - 62.1 °F 56% 30.08 in 10.0 mi West 5.8 mph - N/A   Clear
4:54 PM 78.1 °F - 62.1 °F 58% 30.07 in 10.0 mi Calm Calm - N/A   Clear
5:54 PM 77.0 °F - 63.0 °F 62% 30.07 in 10.0 mi West 3.5 mph - N/A   Clear
6:54 PM 73.9 °F - 63.0 °F 68% 30.08 in 10.0 mi West 3.5 mph - N/A   Clear
7:54 PM 73.0 °F - 63.0 °F 71% 30.08 in 10.0 mi West 4.6 mph - N/A   Clear
8:54 PM 72.0 °F - 64.0 °F 76% 30.09 in 10.0 mi WNW 3.5 mph - N/A   Clear
9:54 PM 70.0 °F - 64.9 °F 84% 30.10 in 10.0 mi Calm Calm - N/A   Clear
10:54 PM 68.0 °F - 64.0 °F 87% 30.11 in 10.0 mi Calm Calm - N/A   Clear
11:54 PM 66.9 °F - 64.0 °F 90% 30.11 in 8.0 mi Calm Calm - N/A   Clear